Regional Weather Roundup
Issued by NWS Jackson, KY

Home | Current Version | Previous Version | Graphics & Text | Print | Product List | Glossary On
Versions: 1 2 3 4 5 6 7 8 9 10 11 12 13 14 15 16 17 18 19 20 21 22 23 24 25 26 27 28 29 30 31 32 33 34 35 36 37 38 39 40 41 42 43 44 45 46 47 48 49 50
000
ASUS43 KJKL 222310
RWRJKL

EAST KENTUCKY HOURLY WEATHER ROUNDUP
NATIONAL WEATHER SERVICE JACKSON KY
700 PM EDT TUE MAY 22 2018

NOTE: "FAIR" INDICATES FEW OR NO CLOUDS BELOW 12,000 FEET WITH
NO SIGNIFICANT WEATHER AND/OR OBSTRUCTIONS TO VISIBILITY.

* THESE REPORTS ARE NOT UNDER NWS QUALITY CONTROL AND MAY NOT
  REPORT WEATHER SUCH AS PRECIPITATION AND FOG.

KYZ079-080-083-085-087-088-110-112-115-119-120-230000
...EASTERN KENTUCKY...

CITY           SKY/WX    TMP DP  RH WIND       PRES   REMARKS
JACKSON          N/A     74  68  81 CALM      30.05R
LONDON         LGT RAIN  69  67  93 W5        30.05F
SOMERSET*        N/A     68  68 100 MISG      30.05F
MONTICELLO*      N/A     70  69  97 E7        30.06F
WILLIAMSBURG*  MOCLDY    68  68 100 CALM      30.04F
MIDDLESBORO*     N/A     72  71  96 CALM      30.06F
HARLAN APT*      N/A     75  67  75 CALM      30.06F
PIKE CO APT*     N/A     70  70 100 CALM      30.06R
BIG SANDY APT*   N/A     73  69  88 CALM      30.04S
MOREHEAD APT*    N/A     77  68  73 S7        30.02F
ASHLAND*         N/A     78  70  76 S7        29.97F
$$

KYZ035-036-041-042-044-050-067-078-099-230000
...CENTRAL KENTUCKY...

CITY           SKY/WX    TMP DP  RH WIND       PRES   REMARKS
MT STERLING*     N/A     77  70  78 SW7       30.02F
FLEMING/MASON*   N/A     78  70  75 S8        30.00S
DANVILLE*        N/A     77  66  69 SW7       30.04S
LEXINGTON        N/A     79  68  69 SW8       30.01F
FRANKFORT        N/A     80  66  62 SW8       29.98F
LOUISVILLE       N/A     84  69  60 SW12G18   29.97R
LEBANON*         N/A     77  63  61 S7        30.02F
GLASGOW*         N/A     75  69  80 S3        30.03S
BOWLING GREEN    N/A     79  70  74 S3        30.01S
$$

KYZ091>093-OHZ055-061-077-WVZ005-015-034-035-042-230000
...SOUTHERN OHIO/WEST VIRGINIA...

CITY           SKY/WX    TMP DP  RH WIND       PRES   REMARKS
COVINGTON      PTSUNNY   80  69  69 VRB6      29.95S THUNDER
COLUMBUS       TSTM      77  67  71 W8        29.93R
DAYTON           N/A     78  66  66 NW10      29.97R
WILMINGTON       N/A     81  67  62 W10       29.95S
HUNTINGTON       N/A     75  67  76 S8        29.99F
CHARLESTON       N/A     72  67  84 S6        30.00F
PINEVILLE*     RAIN      69  68  96 MISG      30.12F
BECKLEY        LGT RAIN  65  61  87 S6        30.10F
BLUEFIELD      CLOUDY    67  64  90 NW3       30.14R
LOGAN CO APT*    N/A     70  68  94 CALM      30.06S
$$

VAZ002-007-008-TNZ017-027-036-066-071-230000
...SOUTHWEST VIRGINIA/EAST TENNESSEE...

CITY           SKY/WX    TMP DP  RH WIND       PRES   REMARKS
WISE*            N/A     72  63  73 SW6       30.12F
JONESVILLE*      N/A     72  66  83 CALM      30.09S
ABINGDON*      PTSUNNY   75  64  69 W7        30.09S
BRISTOL        CLOUDY    74  67  78 CALM      30.06F THUNDER
MORRISTOWN*    PTCLDY    79  66  65 NW7       30.05S
SEVIERVILLE*   MOCLDY    79  68  69 CALM      30.04S
KNOXVILLE      PTSUNNY   78  69  73 NE5       30.02F
LAFOLLETTE*    CLEAR     75  68  78 CALM      30.09S
OAK RIDGE      PTSUNNY   79  70  74 VRB3      30.04S
CROSSVILLE     PTSUNNY   71  64  78 N6        30.10R
NASHVILLE      LGT RAIN  76  72  87 W3        30.03R
$$

...KEY TO REMARKS...
VSB - VISIBILITY IN MILES
WCI - WIND CHILL INDEX
HX  - HEAT INDEX

$$



USA.gov is the U.S. government's official web portal to all federal, state and local government web resources and services.